Date String (YYYY-MM-DD hh:mm:ss) UTC,Instrument flags,absolute air pressure of the measurement (hPa),sample flow rate (lpm),inlet stack bypass flow (lpm),air temperature of the measurement (°C),ambient temperature measured by the external sensor (°C),aerosol sample conditioner tube jacket temperature (°C),OPC LED temperature (°C),internal box temperature (°C),relative humidity of the measurement (%),span deviation,mass concentration of particles derived from Lorenz-Mie calculation of OPC scattering (μg/m³),mass concentration of particles derived from Lorenz-Mie calculation of OPC scattering (μg/m³),mass concentration of particles derived from Lorenz-Mie calculation of OPC scattering (μg/m³)
DateTimeUTC,F1_M11,P_M11,Q1_M11,Q2_M11,T1_M11,T2_M11,T3_M11,T4_M11,T5_M11,U1_M11,ZSPAN_M11,X2_M11,X0_M11,X1_M11
2024-02-16 02:00:00,SystemResetWarning,0825.2,5.00,000.00,021.0,020.4,000.0,029.6,022.7,21.0,0001.3,0006.57,0011.86,0006.11
2024-02-16 02:01:00,SystemResetWarning,0825.2,4.99,000.00,021.0,020.4,000.0,029.5,022.7,21.1,0001.3,0006.92,0012.27,0006.45
2024-02-16 02:02:00,SystemResetWarning,0825.2,5.00,000.00,021.0,020.4,000.0,029.5,022.7,21.1,0001.6,0007.40,0012.95,0006.88
2024-02-16 02:03:00,SystemResetWarning,0825.2,5.01,000.00,021.0,020.4,000.0,029.5,022.7,21.1,0001.5,0007.85,0013.28,0007.30
2024-02-16 02:04:00,SystemResetWarning,0825.3,5.01,000.00,021.0,020.4,000.0,029.5,022.7,21.1,0001.3,0008.33,0013.65,0007.73
2024-02-16 02:05:00,SystemResetWarning,0825.3,5.00,000.00,021.0,020.4,000.0,029.5,022.7,21.1,0001.3,0008.73,0015.05,0008.10
2024-02-16 02:06:00,SystemResetWarning,0825.4,4.99,000.00,021.0,020.4,000.0,029.5,022.7,21.1,0001.4,0008.85,0015.46,0008.20
2024-02-16 02:07:00,SystemResetWarning,0825.4,4.99,000.00,020.9,020.4,000.0,029.5,022.7,21.1,0001.3,0008.90,0015.60,0008.24
2024-02-16 02:08:00,SystemResetWarning,0825.4,5.00,000.00,020.9,020.3,000.0,029.5,022.7,21.1,0001.5,0009.01,0016.02,0008.31
2024-02-16 02:09:00,SystemResetWarning,0825.3,5.00,000.00,020.9,020.3,000.0,029.5,022.7,21.0,0001.7,0009.13,0016.24,0008.41
2024-02-16 02:10:00,SystemResetWarning,0825.3,5.01,000.00,020.9,020.3,000.0,029.5,022.6,21.0,0001.7,0009.25,0016.56,0008.55
2024-02-16 02:11:00,SystemResetWarning,0825.3,5.00,000.00,020.9,020.2,000.0,029.4,022.6,20.9,0001.8,0009.44,0016.73,0008.74
2024-02-16 02:12:00,SystemResetWarning,0825.3,4.99,000.00,020.9,020.2,000.0,029.4,022.5,20.8,0001.7,0009.61,0017.10,0008.83
2024-02-16 02:13:00,SystemResetWarning,0825.3,5.00,000.00,020.8,020.2,000.0,029.4,022.5,20.7,0001.7,0009.73,0017.28,0008.92
2024-02-16 02:14:00,SystemResetWarning,0825.3,5.00,000.00,020.8,020.1,000.0,029.4,022.5,20.5,0001.9,0009.96,0017.79,0009.11
2024-02-16 02:15:00,SystemResetWarning,0825.3,4.99,000.00,020.8,020.1,000.0,029.4,022.5,20.4,0002.0,0010.15,0017.70,0009.26
2024-02-16 02:16:00,SystemResetWarning,0825.3,5.00,000.00,020.8,020.1,000.0,029.4,022.5,20.2,0001.8,0010.29,0017.41,0009.37
2024-02-16 02:17:00,SystemResetWarning,0825.3,5.00,000.00,020.7,020.1,000.0,029.3,022.4,20.1,0001.7,0010.43,0018.46,0009.46
2024-02-16 02:18:00,SystemResetWarning,0825.3,5.00,000.00,020.7,020.0,000.0,029.3,022.3,20.1,0001.7,0010.52,0019.86,0009.55
2024-02-16 02:19:00,SystemResetWarning,0825.3,5.00,000.00,020.7,020.0,000.0,029.3,022.3,20.1,0001.5,0010.64,0020.57,0009.62
2024-02-16 02:20:00,SystemResetWarning,0825.4,5.00,000.00,020.7,020.0,000.0,029.3,022.3,20.1,0001.3,0010.70,0020.93,0009.69
2024-02-16 02:21:00,SystemResetWarning,0825.3,5.00,000.00,020.6,019.9,000.0,029.3,022.3,20.1,0000.9,0010.77,0020.54,0009.77
2024-02-16 02:22:00,SystemResetWarning,0825.4,5.00,000.00,020.6,019.9,000.0,029.2,022.3,20.0,0000.9,0010.83,0019.98,0009.82
2024-02-16 02:23:00,SystemResetWarning,0825.4,5.01,000.00,020.6,019.9,000.0,029.2,022.3,20.0,0000.7,0010.86,0019.60,0009.87
2024-02-16 02:24:00,SystemResetWarning,0825.4,5.00,000.00,020.6,019.9,000.0,029.2,022.3,20.0,0000.6,0010.91,0019.46,0009.93
2024-02-16 02:25:00,SystemResetWarning,0825.4,5.00,000.00,020.6,019.9,000.0,029.2,022.3,20.1,0000.7,0010.97,0019.23,0010.00
2024-02-16 02:26:00,SystemResetWarning,0825.4,5.00,000.00,020.6,019.9,000.0,029.2,022.3,20.4,0000.6,0011.01,0019.37,0010.06
2024-02-16 02:27:00,SystemResetWarning,0825.4,5.00,000.00,020.5,019.9,000.0,029.1,022.2,20.7,0001.0,0011.04,0019.44,0010.10
2024-02-16 02:28:00,SystemResetWarning,0825.4,4.99,000.00,020.5,019.9,000.0,029.1,022.2,20.9,0001.3,0011.07,0018.66,0010.16
2024-02-16 02:29:00,SystemResetWarning,0825.4,5.00,000.00,020.5,019.8,000.0,029.1,022.1,21.0,0001.4,0011.11,0016.90,0010.20
2024-02-16 02:30:00,SystemResetWarning,0825.5,5.00,000.00,020.5,019.8,000.0,029.1,022.1,21.0,0001.5,0011.04,0015.95,0010.21
2024-02-16 02:31:00,SystemResetWarning,0825.5,5.00,000.00,020.4,019.8,000.0,029.1,022.1,21.0,0001.4,0011.03,0015.36,0010.23
2024-02-16 02:32:00,SystemResetWarning,0825.4,5.00,000.00,020.4,019.8,000.0,029.1,022.1,21.2,0001.3,0011.00,0016.40,0010.22
2024-02-16 02:33:00,SystemResetWarning,0825.4,5.00,000.00,020.4,019.8,000.0,029.1,022.1,20.9,0001.3,0010.94,0017.62,0010.16
2024-02-16 02:34:00,SystemResetWarning,0825.4,5.00,000.00,020.4,019.8,000.0,029.0,022.1,20.2,0001.3,0010.81,0017.86,0010.04
2024-02-16 02:35:00,SystemResetWarning,0825.5,5.00,000.00,020.4,019.8,000.0,029.0,022.1,19.9,0001.0,0010.71,0017.81,0009.95
2024-02-16 02:36:00,SystemResetWarning,0825.5,5.00,000.00,020.4,019.8,000.0,029.0,022.2,19.9,0000.8,0010.61,0018.02,0009.83
2024-02-16 02:37:00,SystemResetWarning,0825.5,5.00,000.00,020.4,019.8,000.0,029.0,022.2,20.2,0000.7,0010.59,0018.15,0009.77
2024-02-16 02:38:00,SystemResetWarning,0825.5,5.00,000.00,020.4,019.9,000.0,029.0,022.2,20.4,0000.5,0010.54,0018.98,0009.67
2024-02-16 02:39:00,SystemResetWarning,0825.6,5.00,000.00,020.4,019.9,000.0,029.0,022.2,20.5,0000.4,0010.31,0018.83,0009.43
2024-02-16 02:40:00,SystemResetWarning,0825.6,5.00,000.00,020.4,019.9,000.0,029.0,022.2,20.7,0000.4,0010.08,0018.90,0009.24
2024-02-16 02:41:00,SystemResetWarning,0825.7,4.99,000.00,020.4,019.9,000.0,029.0,022.2,20.8,0000.3,0009.92,0019.23,0009.02
2024-02-16 02:42:00,SystemResetWarning,0825.6,5.00,000.00,020.4,019.9,000.0,029.0,022.3,20.8,0000.3,0009.50,0019.00,0008.58
2024-02-16 02:43:00,SystemResetWarning,0825.6,5.00,000.00,020.5,019.9,000.0,029.0,022.3,20.8,0000.5,0009.09,0018.08,0008.15
2024-02-16 02:44:00,SystemResetWarning,0825.6,5.00,000.00,020.5,019.9,000.0,029.0,022.3,20.9,0000.6,0008.70,0016.44,0007.79
2024-02-16 02:45:00,SystemResetWarning,0825.6,5.00,000.00,020.5,019.9,000.0,029.0,022.3,20.7,0000.6,0008.53,0015.57,0007.67
2024-02-16 02:46:00,SystemResetWarning,0825.6,4.99,000.00,020.5,020.0,000.0,029.0,022.3,20.4,0001.0,0008.47,0015.71,0007.62
2024-02-16 02:47:00,SystemResetWarning,0825.7,5.00,000.00,020.5,020.0,000.0,029.0,022.3,20.1,0001.1,0008.48,0016.20,0007.65
2024-02-16 02:48:00,SystemResetWarning,0825.8,5.00,000.00,020.5,020.0,000.0,029.0,022.3,20.2,0001.1,0008.39,0016.15,0007.61
2024-02-16 02:49:00,SystemResetWarning,0825.8,4.99,000.00,020.5,020.0,000.0,029.0,022.2,20.1,0001.3,0008.29,0014.86,0007.60
2024-02-16 02:50:00,SystemResetWarning,0825.9,5.00,000.00,020.5,019.9,000.0,028.9,022.2,20.0,0001.4,0008.39,0015.15,0007.69
2024-02-16 02:51:00,SystemResetWarning,0825.9,5.00,000.00,020.5,019.9,000.0,028.9,022.2,19.9,0001.5,0008.48,0015.59,0007.74
2024-02-16 02:52:00,SystemResetWarning,0825.9,5.00,000.00,020.5,019.9,000.0,029.0,022.3,19.9,0001.3,0008.53,0015.64,0007.79
2024-02-16 02:53:00,SystemResetWarning,0825.9,5.00,000.00,020.5,019.9,000.0,029.0,022.2,19.9,0001.4,0008.75,0016.06,0008.01
2024-02-16 02:54:00,SystemResetWarning,0825.9,5.00,000.00,020.4,019.9,000.0,029.0,022.2,19.9,0001.4,0008.89,0015.53,0008.17
2024-02-16 02:55:00,SystemResetWarning,0825.9,5.00,000.00,020.4,019.9,000.0,029.0,022.2,19.9,0001.3,0008.95,0015.72,0008.21
2024-02-16 02:56:00,SystemResetWarning,0825.9,5.00,000.00,020.4,019.9,000.0,029.0,022.2,19.9,0001.3,0008.89,0015.84,0008.14
2024-02-16 02:57:00,SystemResetWarning,0826.0,5.00,000.00,020.4,019.9,000.0,028.9,022.2,19.9,0000.8,0008.78,0015.52,0008.03
2024-02-16 02:58:00,SystemResetWarning,0826.0,5.00,000.00,020.4,019.9,000.0,028.9,022.2,20.0,0000.5,0008.53,0014.40,0007.80
2024-02-16 02:59:00,SystemResetWarning,0826.0,5.00,000.00,020.4,019.8,000.0,028.9,022.2,20.0,0000.5,0008.36,0014.70,0007.63
